RH
28 28 29 26 27 25 22 21 21 21 22 22 21 20 19 18 18 18 13 6 6 6 6 7 10 13 18
33 31 32 35 33 30 30 30 30 30 29 28 26 25 24 22 20 11 5 5 6 5 6 11 16 20 20
34 36 35 36 40 43 43 40 35 31 28 24 22 19 15 10 5 4 5 5 7 12 22 31 34 34 29
41 42 46 51 50 42 38 34 29 26 23 20 14 7 3 3 4 5 5 6 17 26 36 33 30 27 26
58 65 56 48 43 36 28 26 22 19 14 5 2 2 3 4 5 6 12 20 30 36 33 30 30 28 24
66 54 43 34 30 26 22 16 4 2 2 2 2 3 4 4 8 18 25 34 35 33 33 32 28 36 52
39 32 26 19 10 4 2 2 2 2 2 3 4 4 4 8 20 32 38 42 40 36 33 41 59 67 67
18 10 4 2 2 2 2 3 4 4 5 6 5 6 9 21 32 42 51 49 44 50 68 73 72 76 82
2 2 3 3 4 4 6 7 8 11 12 6 7 12 24 31 52 80 61 58 74 90 88 83 87 87 87
5 6 12 12 12 11 12 16 21 82 70 16 13 29 67 88 98 95 87 95 93 91 89 90 88 88 94
18 19 19 18 17 17 28 43 60 86 20 15 51 98 100 100 100 100 100 96 98 100 100 98 96 99 100
42 20 15 11 15 21 97 100 100 85 55 62 100 100 100 100 100 100 100 100 100 100 100 100 100 100 100
32 58 52 42 97 97 100 45 31 90 27 87 100 100 100 100 100 100 100 100 100 100 100 100 100 100 100
100 92 96 100 100 63 33 42 100 100 100 100 100 100 100 100 100 100 100 100 100 100 100 100 100 100 100
100 100 100 100 100 100 96 100 100 100 100 100 100 100 100 100 100 100 100 100 100 100 100 100 100 100 100
100 100 95 84 74 86 100 100 100 100 100 100 100 100 100 100 100 100 100 100 100 100 100 100 100 100 100
100 100 96 97 100 100 100 100 100 100 100 100 100 100 100 100 100 100 100 100 100 100 100 100 100 100 100
Wind_Speed
61 63 64 65 64 66 67 69 71 73 75 77 77 78 78 79 80 82 83 80 75 71 68 67 67 67 68
67 68 69 69 71 73 74 75 76 78 80 82 82 82 83 84 86 86 79 72 67 62 61 62 64 65 66
70 72 74 77 78 80 80 80 82 84 87 87 86 88 90 89 84 74 69 64 58 56 56 58 60 62 64
75 77 80 82 84 85 85 87 89 91 91 93 94 91 84 78 70 64 60 55 53 53 55 56 58 59 61
83 84 84 87 89 91 92 94 96 98 98 95 89 82 74 66 59 55 53 52 52 53 54 56 57 57 58
89 90 89 93 96 99 101 101 95 90 87 82 79 71 60 54 51 50 51 52 53 53 53 53 52 50 50
95 96 98 99 100 99 94 88 83 81 78 72 62 52 50 49 47 50 51 50 49 50 49 48 47 47 47
100 99 97 92 89 87 83 80 73 66 63 51 48 46 47 46 46 47 47 45 45 46 44 44 44 42 42
90 86 83 81 79 77 67 61 54 47 44 42 44 44 43 43 41 41 41 41 41 42 42 41 40 38 38
74 73 71 69 64 58 50 45 43 40 43 41 40 39 36 35 37 38 39 38 39 39 38 38 38 38 37
62 62 59 55 47 41 34 29 30 36 40 36 32 31 34 34 36 36 36 35 36 36 38 37 35 35 35
52 49 43 37 32 26 28 36 37 38 29 27 30 33 33 33 33 35 33 34 35 34 32 31 32 32 33
38 28 27 25 19 21 26 27 27 24 28 30 31 31 32 31 32 33 33 31 31 29 30 30 30 30 31
29 26 23 18 25 20 20 21 22 24 25 26 28 31 29 30 31 32 30 28 28 28 28 28 28 28 29
19 16 19 17 16 18 19 18 22 23 23 24 24 26 29 30 30 29 25 26 25 25 26 26 26 27 28
19 21 20 22 18 17 15 16 18 18 19 21 24 26 27 27 26 24 23 23 22 23 25 25 24 27 30
10 10 8 13 8 10 12 14 15 17 20 21 22 22 22 21 22 21 21 19 20 23 23 24 25 24 24
Wind_Direction
280 283 286 286 287 289 289 289 289 289 289 287 286 286 286 285 285 287 288 285 281 277 272 266 262 260 258
283 285 287 290 292 292 291 290 290 289 288 288 287 287 286 286 287 288 285 281 279 274 268 263 259 257 257
286 288 290 291 291 292 292 291 290 288 288 288 287 287 287 286 285 282 280 278 273 268 263 260 257 256 254
288 289 290 291 291 291 290 289 289 288 287 287 286 285 282 280 279 277 274 270 266 263 261 259 258 256 254
289 290 290 289 290 289 289 288 287 286 286 284 280 277 275 274 273 268 265 263 262 262 261 260 261 262 262
290 289 290 289 289 288 287 286 286 282 280 277 274 272 269 266 261 260 259 260 261 262 263 264 263 261 259
290 290 290 289 289 288 287 284 281 277 275 272 269 264 258 255 255 256 258 260 262 263 264 261 260 259 256
292 292 290 288 287 286 284 281 278 274 271 267 255 250 250 251 253 256 258 260 261 262 261 260 259 259 254
290 289 287 286 284 283 283 278 271 264 258 252 245 246 249 250 253 255 257 259 259 260 261 260 259 257 255
286 285 285 285 284 281 274 266 258 244 252 248 243 244 248 252 252 253 256 258 260 260 259 257 257 255 253
288 288 286 283 280 272 266 253 250 249 250 241 237 241 245 245 249 255 258 258 258 261 261 258 253 250 249
298 293 287 279 273 258 235 239 237 247 237 233 232 243 239 244 250 256 257 259 260 261 255 251 249 245 242
299 291 285 271 261 242 244 247 235 239 236 222 236 237 240 246 255 258 261 261 258 254 250 247 245 240 237
303 290 270 274 255 258 234 230 229 229 233 240 237 238 243 254 258 261 260 256 252 249 244 242 238 233 233
286 292 263 252 238 254 217 230 228 234 235 237 239 245 253 259 260 258 254 250 247 243 239 236 230 229 228
274 286 278 248 246 218 228 234 234 230 232 242 248 255 258 256 253 251 247 247 243 237 230 226 226 223 218
282 273 280 209 246 226 230 227 231 239 246 251 256 255 251 249 250 246 244 240 231 221 221 221 224 219 222